TimePST,TemperatureF,Dew PointF,Humidity,Sea Level PressureIn,VisibilityMPH,Wind Direction,Wind SpeedMPH,Gust SpeedMPH,PrecipitationIn,Events,Conditions,WindDirDegrees,DateUTC
12:53 AM,48.0,39.9,74,29.59,10.0,SW,4.6,-,N/A,,Clear,230,2013-11-19 08:53:00
1:53 AM,54.0,43.0,66,29.58,10.0,SW,13.8,20.7,N/A,,Clear,230,2013-11-19 09:53:00
2:53 AM,45.0,37.9,76,29.59,10.0,NW,4.6,-,N/A,,Clear,310,2013-11-19 10:53:00
3:53 AM,55.0,43.0,64,29.58,10.0,Variable,6.9,21.9,N/A,,Mostly Cloudy,0,2013-11-19 11:53:00
4:53 AM,55.0,43.0,64,29.57,10.0,South,15.0,24.2,N/A,,Partly Cloudy,190,2013-11-19 12:53:00
5:53 AM,48.9,39.9,71,29.58,10.0,NNE,5.8,-,N/A,,Clear,20,2013-11-19 13:53:00
6:53 AM,55.0,43.0,64,29.59,10.0,Variable,6.9,-,N/A,,Mostly Cloudy,0,2013-11-19 14:53:00
7:53 AM,55.9,43.0,62,29.60,10.0,Variable,6.9,17.3,N/A,,Mostly Cloudy,0,2013-11-19 15:53:00
8:53 AM,57.0,43.0,59,29.61,10.0,West,4.6,-,N/A,,Mostly Cloudy,270,2013-11-19 16:53:00
9:53 AM,57.0,43.0,59,29.62,10.0,North,3.5,-,N/A,,Overcast,350,2013-11-19 17:53:00
2:53 PM,57.9,21.0,24,29.64,10.0,NNW,13.8,25.3,N/A,,Unknown,340,2013-11-19 22:53:00
3:53 PM,52.0,30.0,43,29.69,10.0,ENE,6.9,-,N/A,,Clear,70,2013-11-19 23:53:00
4:53 PM,50.0,28.9,44,29.71,10.0,NNE,12.7,18.4,N/A,,Clear,30,2013-11-20 00:53:00
5:53 PM,46.0,28.9,51,29.74,10.0,NNE,6.9,-,N/A,,Clear,20,2013-11-20 01:53:00
6:53 PM,44.1,27.0,51,29.76,10.0,North,9.2,-,N/A,,Clear,350,2013-11-20 02:53:00
7:53 PM,41.0,26.1,55,29.79,10.0,WNW,3.5,-,N/A,,Clear,290,2013-11-20 03:53:00
8:53 PM,39.9,26.1,58,29.81,10.0,Calm,Calm,-,N/A,,Clear,0,2013-11-20 04:53:00
9:53 PM,42.1,26.1,53,29.84,10.0,NW,13.8,-,N/A,,Clear,320,2013-11-20 05:53:00
10:53 PM,41.0,24.1,51,29.86,10.0,NW,8.1,-,N/A,,Clear,310,2013-11-20 06:53:00
11:53 PM,37.9,25.0,60,29.90,10.0,WNW,9.2,-,N/A,,Clear,300,2013-11-20 07:53:00